CW8822 Caguas PR US current weather conditions

sailwx.info

Wind from 178

Air temperature 23.9° C
Dewpoint 23.0° C

Last reported at 2014-Oct-24 10:44 UTC.
Time now 2014-Oct-24 11:25 UTC

Location: N 18°12' W 066°01'.
View on Google Maps.

See reports from other nearby stations

  
Tides and Currents Weather Stations Pressure Air Temp Water Temp Dewpoint Dewpoint Depression Visibility Wind Speed Wind Dir Waves Ship Positions
date/time (UTC)wind fromknots sea level pressurealtimeterstation pressurevisibilityair tempwater tempwave heightnotes
2014-Oct-24 10:44 178 23.9
2014-Oct-24 10:29 142 23.9
2014-Oct-24 10:14 142 2 gusting 4 23.9
2014-Oct-24 09:59 142 23.3
2014-Oct-24 09:44 142 23.3
2014-Oct-24 09:29 142 23.9
2014-Oct-24 09:14 139 2 gusting 6 24.4
2014-Oct-24 08:59 138 24.4
2014-Oct-24 08:43 138 23.9
2014-Oct-24 08:28 138 23.9
2014-Oct-24 08:13 138 23.9
2014-Oct-24 07:58 138 23.9
2014-Oct-24 07:43 138 24.4
2014-Oct-24 07:28 138 23.9
2014-Oct-24 07:14 138 0 gusting 2 23.9
2014-Oct-24 06:58 138 23.9
2014-Oct-24 06:43 138 0 gusting 1 23.9
2014-Oct-24 06:28 138 23.9
2014-Oct-24 06:13 138 23.9
2014-Oct-24 05:58 138 23.9
2014-Oct-24 05:43 138 23.9
2014-Oct-24 05:28 138 23.9
2014-Oct-24 05:13 138 23.9
2014-Oct-24 04:58 138 23.9
2014-Oct-24 04:43 138 24.4
2014-Oct-24 04:28 138 24.4
2014-Oct-24 04:13 138 24.4
2014-Oct-24 03:58 138 24.4
2014-Oct-24 03:43 138 24.4
2014-Oct-24 03:28 138 24.4
2014-Oct-24 03:13 138 24.4
2014-Oct-24 02:58 138 24.4
2014-Oct-24 02:43 138 24.4
2014-Oct-24 02:28 138 24.4
2014-Oct-24 02:13 138 24.4
2014-Oct-24 01:58 138 24.4
2014-Oct-24 01:43 138 25.0
2014-Oct-24 01:28 138 0 gusting 4 25.0
2014-Oct-24 01:13 136 1 gusting 4 25.0
2014-Oct-24 00:58 130 25.0
2014-Oct-24 00:43 130 25.6
2014-Oct-24 00:28 126 1 gusting 4 25.6
2014-Oct-24 00:13 126 0 gusting 3 25.6
2014-Oct-23 23:58 126 1 gusting 4 25.6
2014-Oct-23 23:43 126 1 gusting 3 25.6
2014-Oct-23 23:28 126 0 gusting 5 25.6
2014-Oct-23 23:13 144 0 gusting 4 25.6
2014-Oct-23 22:58 132 0 gusting 3 25.6
2014-Oct-23 22:43 124 2 gusting 6 26.1
2014-Oct-23 22:28 145 1 gusting 3 26.1
2014-Oct-23 22:13 135 2 gusting 6 26.1
2014-Oct-23 21:58 134 0 gusting 4 26.7
2014-Oct-23 21:43 105 2 gusting 6 27.2
2014-Oct-23 21:28 127 1 gusting 6 27.8
2014-Oct-23 21:13 128 1 gusting 5 28.3
2014-Oct-23 20:58 110 1 gusting 7 28.3
2014-Oct-23 20:43 138 2 gusting 6 28.9
2014-Oct-23 20:28 139 0 gusting 8 28.9
2014-Oct-23 20:13 158 4 gusting 8 28.9
2014-Oct-23 19:59 121 0 gusting 6 29.4
2014-Oct-23 19:42 084 1 gusting 6 29.4
2014-Oct-23 19:28 145 3 gusting 8 29.4
2014-Oct-23 19:13 111 2 gusting 9 30.0
2014-Oct-23 18:57 126 30.0
2014-Oct-23 18:28 113 5 gusting 9 29.4
2014-Oct-23 18:12 136 1 gusting 10 30.0
2014-Oct-23 17:57 144 1 gusting 6 30.0
2014-Oct-23 17:43 049 1 gusting 5 30.0
2014-Oct-23 17:28 159 0 gusting 6 29.4
2014-Oct-23 17:12 138 0 gusting 5 29.4
2014-Oct-23 16:57 071 0 gusting 3 30.0
2014-Oct-23 16:41 173 1 gusting 8 29.4
2014-Oct-23 16:27 144 0 gusting 6 30.0
2014-Oct-23 16:12 111 2 gusting 9 30.6
2014-Oct-23 15:56 059 0 gusting 6 28.9
2014-Oct-23 15:42 130 2 gusting 6 28.9
2014-Oct-23 15:27 091 1 gusting 6 28.9
2014-Oct-23 15:11 143 0 gusting 6 28.9
2014-Oct-23 14:56 130 0 gusting 6 29.4
2014-Oct-23 14:42 061 29.4
2014-Oct-23 14:26 108 2 gusting 6 28.3
2014-Oct-23 14:11 126 0 gusting 6 27.8
2014-Oct-23 13:57 081 1 gusting 8 27.8
2014-Oct-23 13:40 140 0 gusting 6 28.3
2014-Oct-23 13:26 128 0 gusting 5 28.3
2014-Oct-23 13:11 132 0 gusting 6 27.8
2014-Oct-23 12:56 086 1 gusting 6 27.2
2014-Oct-23 12:41 079 1 gusting 6 26.7
2014-Oct-23 12:25 059 0 gusting 3 26.1
2014-Oct-23 12:10 142 0 gusting 4 25.6
2014-Oct-23 11:56 225 25.0
2014-Oct-23 11:40 225 23.9
2014-Oct-23 11:26 225 0 gusting 2 23.3
2014-Oct-23 11:09 140 23.3
2014-Oct-23 10:55 166 2 gusting 9 23.3
2014-Oct-23 10:40 149 3 gusting 8 22.8
2014-Oct-23 10:24 133 2 gusting 7 22.8
2014-Oct-23 10:10 169 22.8
2014-Oct-23 09:55 150 2 gusting 6 22.8
2014-Oct-23 09:39 163 2 gusting 6 22.8
2014-Oct-23 09:24 140 22.8
2014-Oct-23 09:10 140 22.8
2014-Oct-23 08:55 140 22.8
2014-Oct-23 08:39 139 22.8
2014-Oct-23 08:24 126 2 gusting 5 22.2
2014-Oct-23 08:10 113 22.8
2014-Oct-23 07:54 061 22.8
2014-Oct-23 07:39 069 0 gusting 6 23.3
2014-Oct-23 07:24 116 0 gusting 7 23.3
2014-Oct-23 07:08 132 22.8
2014-Oct-23 06:54 132 22.8
2014-Oct-23 06:39 132 22.8
2014-Oct-23 06:23 132 22.8
2014-Oct-23 06:08 132 0 gusting 2 23.3
2014-Oct-23 05:54 132 23.3
2014-Oct-23 05:38 132 23.3
2014-Oct-23 05:23 132 23.9
2014-Oct-23 05:08 132 23.3
2014-Oct-23 04:54 132 0 gusting 2 23.9
2014-Oct-23 04:38 132 23.9
2014-Oct-23 04:23 132 23.9
2014-Oct-23 04:08 132 23.9
2014-Oct-23 03:52 132 23.9
2014-Oct-23 03:38 132 23.9
2014-Oct-23 03:23 132 23.9
2014-Oct-23 03:08 132 24.4
2014-Oct-23 02:53 132 24.4
2014-Oct-23 02:38 132 24.4
2014-Oct-23 02:22 132 24.4
2014-Oct-23 02:08 132 24.4
2014-Oct-23 01:53 132 24.4
2014-Oct-23 01:37 132 24.4
2014-Oct-23 01:23 132 24.4
2014-Oct-23 01:06 132 25.0
2014-Oct-23 00:52 132 25.0
2014-Oct-23 00:37 132 25.0
2014-Oct-23 00:22 132 25.0
2014-Oct-23 00:06 132 25.0
2014-Oct-22 23:52 132 25.0
2014-Oct-22 23:37 132 25.6
2014-Oct-22 23:21 132 0 gusting 3 25.6
2014-Oct-22 23:07 132 0 gusting 6 25.6
2014-Oct-22 22:51 134 1 gusting 4 25.6
2014-Oct-22 22:36 138 2 gusting 5 25.6
2014-Oct-22 22:21 138 1 gusting 4 26.1
2014-Oct-22 22:07 125 26.1
2014-Oct-22 21:51 125 26.7
2014-Oct-22 21:36 130 0 gusting 5 27.2
2014-Oct-22 21:22 115 0 gusting 4 27.8
2014-Oct-22 21:05 103 0 gusting 4 27.8
2014-Oct-22 20:51 139 0 gusting 3 27.8
2014-Oct-22 20:36 098 1 gusting 6 28.9
2014-Oct-22 20:20 066 2 gusting 6 29.4
2014-Oct-22 20:06 063 30.0
2014-Oct-22 19:51 150 0 gusting 4 30.6
2014-Oct-22 19:35 105 1 gusting 6 30.0
2014-Oct-22 19:20 159 30.0
2014-Oct-22 19:06 132 1 gusting 7 30.0
2014-Oct-22 18:50 140 0 gusting 8 30.0
2014-Oct-22 18:36 077 2 gusting 9 30.0
2014-Oct-22 18:21 065 0 gusting 6 30.0
2014-Oct-22 18:05 136 0 gusting 7 30.0
2014-Oct-22 17:50 141 3 gusting 8 30.0
2014-Oct-22 17:34 131 1 gusting 6 30.6
2014-Oct-22 17:20 105 2 gusting 10 30.0
2014-Oct-22 17:04 121 1 gusting 6 30.0
2014-Oct-22 16:50 050 3 gusting 6 30.6
2014-Oct-22 16:35 140 1 gusting 7 30.0
2014-Oct-22 16:19 101 1 gusting 9 30.0
2014-Oct-22 16:05 136 2 gusting 9 30.0
2014-Oct-22 15:49 128 0 gusting 6 30.0
2014-Oct-22 15:34 103 1 gusting 10 29.4
2014-Oct-22 15:20 143 2 gusting 9 29.4
2014-Oct-22 15:04 163 0 gusting 6 29.4
2014-Oct-22 14:49 146 0 gusting 7 28.9
2014-Oct-22 14:34 060 0 gusting 6 28.9
2014-Oct-22 14:18 137 2 gusting 6 28.9
2014-Oct-22 14:04 094 0 gusting 7 28.9
2014-Oct-22 13:48 336 1 gusting 8 28.3
2014-Oct-22 13:34 126 0 gusting 5 27.8
2014-Oct-22 13:18 063 2 gusting 6 27.2
2014-Oct-22 13:03 052 1 gusting 5 26.7
2014-Oct-22 12:49 048 25.6
2014-Oct-22 12:33 044 1 gusting 3 25.0
2014-Oct-22 12:19 125 24.4
2014-Oct-22 12:02 125 23.9
2014-Oct-22 11:48 125 23.3
2014-Oct-22 11:33 219 23.3
2014-Oct-22 11:18 219 22.8
2014-Oct-22 11:02 219 22.2